Regional Weather Roundup
Issued by NWS

Home | Current Version | Previous Version | Graphics & Text | Print | Product List | Glossary On
Versions: 1 2 3 4 5 6 7 8 9 10 11 12 13 14 15 16 17 18 19 20 21 22 23 24 25 26 27 28 29 30 31 32 33 34 35 36 37 38 39 40 41 42 43 44 45 46 47 48 49 50
000
ASUS43 KLMK 241010
RWRKY
KENTUCKY REGIONAL WEATHER ROUNDUP
NATIONAL WEATHER SERVICE LOUISVILLE KY
600 AM EDT MON JUL 24 2017

NOTE "FAIR" INDICATES FEW OR NO CLOUDS BELOW 12,000 FEET
WITH NO SIGNIFICANT WEATHER AND/OR OBSTRUCTIONS TO VISIBILITY.

KYZ001>023-026-027-061>063-070>075-241100-
WESTERN AND SOUTH CENTRAL KENTUCKY

CITY           SKY/WX    TMP DP  RH WIND       PRES   REMARKS
PADUCAH        PTCLDY    72  69  90 CALM      29.88R
HENDERSON      PTCLDY    69  68  96 NE5       29.90R
OWENSBORO      PTCLDY    72  69  90 CALM      29.90R
HOPKINSVILLE   CLOUDY    74  72  93 SW5       29.91R
BOWLING GREEN  CLEAR     73  72  96 CALM      29.92R
GLASGOW        CLOUDY   N/A N/A N/A CALM      29.93R FOG
$$

KYZ024-025-028>034-038-045-046-053-241100-
NORTH CENTRAL KENTUCKY

CITY           SKY/WX    TMP DP  RH WIND       PRES   REMARKS
LOUISVILLE/SDF PTCLDY    75  71  87 SW3       29.89R
LOUISVILLE/LOU CLEAR     74  73  97 CALM      29.90R
FORT KNOX      CLEAR     70  70 100 CALM      29.90R
$$

KYZ035>037-039>044-047>052-055>060-089>105-241100-
NORTHEAST KENTUCKY

CITY           SKY/WX    TMP DP  RH WIND       PRES   REMARKS
LEXINGTON      PTCLDY    71  68  90 W5        29.92R
COVINGTON      MOCLDY    70  70 100 SW5       29.88R
FRANKFORT      CLEAR     72  68  87 SW6       29.89R
$$

KYZ054-064>069-076>088-106>120-241100-
SOUTHEAST KENTUCKY

CITY           SKY/WX    TMP DP  RH WIND       PRES   REMARKS
JACKSON        PTCLDY    70  68  93 CALM      29.94R FOG
LONDON         CLOUDY    68  66  93 S3        29.95R
SOMERSET       PTCLDY    68  68 100 CALM      29.95R
MIDDLESBORO    CLOUDY    69  69 100 CALM      29.96S
MONTICELLO     CLOUDY    67  67 100 W9        29.96  FOG
$$





USA.gov is the U.S. government's official web portal to all federal, state and local government web resources and services.